Flag for U.S.A. Weather past 2 weeks in Kennebunk, Maine, U.S.A.

Now
55 °F

Sunny.


Feels Like: 53 °F
Forecast: 35 / 52 °F
Wind: 9 mph from Southeast

Location: Sanford Municipal


UV Index: 5 (Moderate)

Visibility: 10 mi


Pressure: 30.46 "Hg

Humidity: 11%

Dew point: 1 °F

Location of KennebunkLocation

Historic Weather in Kennebunk

°F

Kennebunk temperature yesterday

Maximum temperature yesterday: 61 °F (at 11:15 AM)
Minimum temperature yesterday: 25 °F (at 2:35 AM)
Average temperature yesterday: 44 °F

Past Weeks' High & Low Weather Summary

 TemperatureHumidityPressure
High79 °F (Apr 14, 12:35 PM)100% (Apr 10, 3:35 AM)30.83 "Hg (Apr 10, 3:35 AM)
Low18 °F (Apr 17, 5:15 AM)10% (Apr 15, 3:15 PM)29.28 "Hg (Apr 8, 5:55 PM)
Average44 °F39%30.06 "Hg
* Reported Apr 5 12:15 PM — Apr 20 12:55 PM, Kennebunk, Weather by CustomWeather, © 2014

Note: Actual official high and low records may vary slightly from our data, if they occured in-between our weather recording intervals... More about our weather records

Advertising

Historic Weather Conditions — Data for Previous 24 hours

 ConditionsComfort  
Time TempWeatherWind HumidityBarometerVisibility
12:55 PM
Apr 20
55 °FSunny.9 mph11%30.47 "Hg10 mi
12:35 PM55 °FSunny.8 mph11%30.47 "Hg10 mi
12:15 PM57 °FSunny.12 mph10%30.47 "Hg10 mi
11:55 AM57 °FSunny.7 mph10%30.48 "Hg10 mi
11:35 AM57 °FSunny.7 mph11%30.48 "Hg10 mi
11:15 AM57 °FSunny.No wind11%30.49 "Hg10 mi
10:55 AM55 °FSunny.3 mph11%30.50 "Hg10 mi
10:35 AM52 °FSunny.3 mph11%30.51 "Hg10 mi
9:55 AM50 °FSunny.7 mph11%30.51 "Hg10 mi
9:35 AM48 °FSunny.8 mph11%30.51 "Hg10 mi
9:15 AM46 °FSunny.6 mph11%30.51 "Hg10 mi
8:55 AM46 °FSunny.9 mph11%30.51 "Hg10 mi
8:35 AM45 °FSunny.9 mph11%30.51 "Hg10 mi
8:15 AM45 °FSunny.9 mph11%30.50 "Hg10 mi
7:55 AM43 °FSunny.6 mph10%30.50 "Hg10 mi
7:35 AM39 °FSunny.8 mph11%30.50 "Hg10 mi
6:55 AM30 °FSunny.8 mph12%30.49 "Hg10 mi
6:35 AM28 °FClear.No wind12%30.49 "Hg10 mi
5:55 AM28 °FClear.3 mph12%30.47 "Hg10 mi
5:35 AM27 °FClear.6 mph11%30.45 "Hg10 mi
4:55 AM27 °FClear.No wind11%30.44 "Hg10 mi
4:35 AM28 °FClear.No wind12%30.43 "Hg10 mi
4:15 AM28 °FClear.5 mph12%30.43 "Hg10 mi
3:55 AM32 °FClear.5 mph11%30.43 "Hg10 mi
3:35 AM34 °FClear.5 mph11%30.42 "Hg10 mi
3:15 AM36 °FClear.7 mph11%30.42 "Hg10 mi
2:55 AM36 °FClear.7 mph11%30.42 "Hg10 mi
2:35 AM36 °FClear.9 mph11%30.41 "Hg10 mi
2:15 AM36 °FClear.10 mph11%30.40 "Hg10 mi
1:55 AM36 °FClear.12 mph11%30.40 "Hg10 mi
1:35 AM36 °FClear.12 mphN/A30.40 "Hg10 mi
1:15 AM34 °FClear.12 mph11%30.41 "Hg10 mi
12:55 AM32 °FClear.9 mph11%30.41 "Hg10 mi
12:35 AM32 °FClear.7 mph11%30.41 "Hg10 mi
12:15 AM34 °FClear.8 mph11%30.40 "Hg10 mi
11:55 PM
Apr 19
36 °FClear.No wind11%30.41 "Hg10 mi
11:35 PM37 °FClear.No wind12%30.41 "Hg10 mi
11:15 PM37 °FClear.12 mph12%30.39 "Hg10 mi
10:55 PM39 °FClear.No wind12%30.39 "Hg10 mi
10:35 PM39 °FClear.12 mph12%30.38 "Hg10 mi
10:15 PM39 °FClear.6 mph12%30.38 "Hg10 mi
9:55 PM41 °FClear.8 mph11%30.37 "Hg10 mi
9:35 PM39 °FClear.7 mph12%30.37 "Hg10 mi
9:15 PM41 °FClear.6 mph11%30.36 "Hg10 mi
8:55 PM43 °FClear.7 mph10%30.35 "Hg10 mi
8:35 PM43 °FClear.8 mph10%30.34 "Hg10 mi
8:15 PM43 °FSunny.7 mph11%30.32 "Hg10 mi
7:55 PM45 °FSunny.5 mph11%30.31 "Hg10 mi
7:35 PM46 °FSunny.8 mph11%30.31 "Hg10 mi
7:15 PM46 °FSunny.12 mph11%30.30 "Hg10 mi
6:55 PM48 °FSunny.14 mph11%30.28 "Hg10 mi
6:35 PM50 °FSunny.15 mph11%30.27 "Hg10 mi
6:15 PM52 °FSunny.16 mph10%30.26 "Hg10 mi
5:55 PM52 °FSunny.14 mph11%30.26 "Hg10 mi
5:35 PM54 °FSunny.15 mph11%30.25 "Hg10 mi
5:15 PM54 °FScattered clouds.16 mph11%30.24 "Hg10 mi
4:55 PM54 °FPartly sunny.17 mph11%30.23 "Hg10 mi
4:35 PM54 °FPassing clouds.15 mph12%30.23 "Hg10 mi
4:15 PM55 °FSunny.14 mph11%30.22 "Hg10 mi
3:55 PM55 °FPassing clouds.13 mph11%30.20 "Hg10 mi
3:35 PM55 °FScattered clouds.15 mph11%30.20 "Hg10 mi
3:15 PM57 °FBroken clouds.15 mph11%30.18 "Hg10 mi
2:55 PM59 °FMostly cloudy.13 mph10%30.18 "Hg10 mi
2:35 PM61 °FBroken clouds.16 mph11%30.18 "Hg10 mi
2:15 PM61 °FPassing clouds.17 mph11%30.17 "Hg10 mi
Weather by CustomWeather, © 2014

See weather overview